Location: M?digepalle
(16.1753°N, 80.3496°E)
Time: 07:42:21
(UTC+00:00)

Cosmos 1346 Rocket - Pass Details

Date: 29 October 2020
Orbit: 535 x 543 km, 81.2° (Epoch: 27 November)

Event Time Altitude Azimuth Distance (km) Brightness Sun altitude
Rises 12:50:54 0° 13° (NNE) 2,696 6.1 -10.5°
Reaches altitude 10° 12:53:25 10° 29° (NNE) 1,803 5.1 -11.1°
Maximum altitude 12:56:34 23° 82° (E) 1,188 3.9 -11.8°
Drops below altitude 10° 12:59:44 10° 135° (SE) 1,800 5.1 -12.6°
Sets 13:02:13 0° 150° (SSE) 2,689 6.1 -13.2°
